Time,TemperatureF,DewpointF,PressureIn,WindDirection,WindDirectionDegrees,WindSpeedMPH,WindSpeedGustMPH,Humidity,HourlyPrecipIn,Conditions,Clouds,dailyrainin,SoftwareType,DateUTC
2013-04-17 00:04:00,28.5,15.7,30.05,North,0,0.0,-999.0,58,0.00,,,-99.99,,2013-04-17 08:04:00,
2013-04-17 00:09:00,28.4,15.8,30.05,North,0,0.0,-999.0,58,0.00,,,-99.99,,2013-04-17 08:09:00,
2013-04-17 00:14:00,28.1,15.6,30.05,North,0,0.0,-999.0,59,0.00,,,-99.99,,2013-04-17 08:14:00,
2013-04-17 00:19:00,28.1,16.2,30.05,North,0,0.0,-999.0,60,0.00,,,-99.99,,2013-04-17 08:19:00,
2013-04-17 00:24:00,27.9,15.6,30.05,North,0,0.0,-999.0,59,0.00,,,-99.99,,2013-04-17 08:24:00,
2013-04-17 00:29:00,27.9,15.5,30.05,North,0,0.0,-999.0,59,0.00,,,-99.99,,2013-04-17 08:29:00,
2013-04-17 00:34:00,28.2,15.5,30.05,North,0,0.0,-999.0,58,0.00,,,-99.99,,2013-04-17 08:34:00,
2013-04-17 00:39:00,28.1,15.9,30.05,North,0,0.0,-999.0,59,0.00,,,-99.99,,2013-04-17 08:39:00,
2013-04-17 00:44:00,27.9,15.7,30.05,North,0,0.0,-999.0,59,0.00,,,-99.99,,2013-04-17 08:44:00,
2013-04-17 00:49:00,27.9,15.5,30.05,North,0,0.0,-999.0,59,0.00,,,-99.99,,2013-04-17 08:49:00,
2013-04-17 00:54:00,27.9,15.9,30.05,North,0,0.0,-999.0,60,0.00,,,-99.99,,2013-04-17 08:54:00,
2013-04-17 00:59:00,27.7,15.6,30.04,North,0,0.0,-999.0,60,0.00,,,-99.99,,2013-04-17 08:59:00,
2013-04-17 01:04:00,27.7,15.5,30.04,North,0,0.0,-999.0,59,0.00,,,-99.99,,2013-04-17 09:04:00,
2013-04-17 01:09:00,27.6,15.4,30.04,North,0,0.0,-999.0,59,0.00,,,-99.99,,2013-04-17 09:09:00,
2013-04-17 01:14:00,27.7,16.3,30.04,North,0,0.0,-999.0,61,0.00,,,-99.99,,2013-04-17 09:14:00,
2013-04-17 01:19:00,27.8,16.3,30.04,North,0,0.0,-999.0,61,0.00,,,-99.99,,2013-04-17 09:19:00,
2013-04-17 01:24:00,27.5,14.9,30.04,North,0,0.0,-999.0,58,0.00,,,-99.99,,2013-04-17 09:24:00,
2013-04-17 01:29:00,27.8,15.9,30.04,North,0,0.0,-999.0,60,0.00,,,-99.99,,2013-04-17 09:29:00,
2013-04-17 01:34:00,27.8,15.8,30.04,North,0,0.0,-999.0,60,0.00,,,-99.99,,2013-04-17 09:34:00,
2013-04-17 01:39:00,27.9,15.3,30.04,North,0,0.0,-999.0,58,0.00,,,-99.99,,2013-04-17 09:39:00,
2013-04-17 01:44:00,27.7,15.4,30.04,North,0,0.0,-999.0,59,0.00,,,-99.99,,2013-04-17 09:44:00,
2013-04-17 01:49:00,27.8,14.9,30.04,North,0,0.0,-999.0,58,0.00,,,-99.99,,2013-04-17 09:49:00,
2013-04-17 01:54:00,27.9,15.5,30.04,North,0,0.0,-999.0,59,0.00,,,-99.99,,2013-04-17 09:54:00,
2013-04-17 01:59:00,27.8,16.2,30.03,North,0,0.0,-999.0,61,0.00,,,-99.99,,2013-04-17 09:59:00,
2013-04-17 02:04:00,27.5,15.0,30.03,North,0,0.0,-999.0,58,0.00,,,-99.99,,2013-04-17 10:04:00,
2013-04-17 02:09:00,27.5,14.6,30.03,North,0,0.0,-999.0,57,0.00,,,-99.99,,2013-04-17 10:09:00,
2013-04-17 02:14:00,27.6,15.0,30.03,North,0,0.0,-999.0,58,0.00,,,-99.99,,2013-04-17 10:14:00,
2013-04-17 02:19:00,27.7,14.7,30.03,North,0,0.0,-999.0,57,0.00,,,-99.99,,2013-04-17 10:19:00,
2013-04-17 02:24:00,27.5,13.5,30.03,North,0,0.0,-999.0,55,0.00,,,-99.99,,2013-04-17 10:24:00,
2013-04-17 02:29:00,27.5,15.6,30.03,North,0,0.0,-999.0,60,0.00,,,-99.99,,2013-04-17 10:29:00,
2013-04-17 02:34:00,27.5,15.0,30.03,North,0,0.0,-999.0,58,0.00,,,-99.99,,2013-04-17 10:34:00,
2013-04-17 02:39:00,27.3,14.9,30.03,North,0,0.0,-999.0,59,0.00,,,-99.99,,2013-04-17 10:39:00,
2013-04-17 02:44:00,27.2,14.9,30.03,North,0,0.0,-999.0,59,0.00,,,-99.99,,2013-04-17 10:44:00,
2013-04-17 02:49:00,27.3,15.3,30.03,North,0,0.0,-999.0,59,0.00,,,-99.99,,2013-04-17 10:49:00,
2013-04-17 02:54:00,27.4,14.9,30.03,North,0,0.0,-999.0,58,0.00,,,-99.99,,2013-04-17 10:54:00,
2013-04-17 02:59:00,27.3,14.2,30.03,North,0,0.0,-999.0,57,0.00,,,-99.99,,2013-04-17 10:59:00,
2013-04-17 03:04:00,27.2,15.4,30.03,North,0,0.0,-999.0,60,0.00,,,-99.99,,2013-04-17 11:04:00,
2013-04-17 03:09:00,27.0,14.8,30.03,North,0,0.0,-999.0,59,0.00,,,-99.99,,2013-04-17 11:09:00,
2013-04-17 03:14:00,27.0,13.9,30.03,North,0,0.0,-999.0,57,0.00,,,-99.99,,2013-04-17 11:14:00,
2013-04-17 03:19:00,26.9,14.3,30.03,North,0,0.0,-999.0,58,0.00,,,-99.99,,2013-04-17 11:19:00,
2013-04-17 03:24:00,27.0,14.3,30.03,North,0,0.0,-999.0,58,0.00,,,-99.99,,2013-04-17 11:24:00,
2013-04-17 03:29:00,27.1,13.1,30.03,North,0,0.0,-999.0,55,0.00,,,-99.99,,2013-04-17 11:29:00,
2013-04-17 03:34:00,27.3,12.8,30.03,North,0,0.0,-999.0,53,0.00,,,-99.99,,2013-04-17 11:34:00,
2013-04-17 03:39:00,27.3,13.4,30.03,North,0,0.0,-999.0,55,0.00,,,-99.99,,2013-04-17 11:39:00,
2013-04-17 03:44:00,27.3,13.7,30.03,North,0,0.0,-999.0,55,0.00,,,-99.99,,2013-04-17 11:44:00,
2013-04-17 03:49:00,27.4,13.4,30.03,North,0,0.0,-999.0,55,0.00,,,-99.99,,2013-04-17 11:49:00,
2013-04-17 03:54:00,27.5,14.3,30.03,North,0,0.0,-999.0,57,0.00,,,-99.99,,2013-04-17 11:54:00,
2013-04-17 03:59:00,27.4,14.0,30.03,North,0,0.0,-999.0,56,0.00,,,-99.99,,2013-04-17 11:59:00,
2013-04-17 04:04:00,27.2,13.3,30.03,North,0,0.0,-999.0,55,0.00,,,-99.99,,2013-04-17 12:04:00,
2013-04-17 04:09:00,27.0,13.4,30.03,North,0,0.0,-999.0,55,0.00,,,-99.99,,2013-04-17 12:09:00,
2013-04-17 04:15:00,27.2,14.1,30.03,North,0,0.0,-999.0,57,0.00,,,-99.99,,2013-04-17 12:15:00,
2013-04-17 04:20:00,27.2,14.4,30.03,North,0,0.0,-999.0,58,0.00,,,-99.99,,2013-04-17 12:20:00,
2013-04-17 04:25:00,27.0,14.9,30.03,North,0,0.0,-999.0,59,0.00,,,-99.99,,2013-04-17 12:25:00,
2013-04-17 04:30:00,27.0,15.3,30.03,North,0,0.0,-999.0,60,0.00,,,-99.99,,2013-04-17 12:30:00,
2013-04-17 04:35:00,26.9,15.1,30.03,North,0,0.0,-999.0,60,0.00,,,-99.99,,2013-04-17 12:35:00,
2013-04-17 04:41:00,26.9,15.5,30.03,North,0,0.0,-999.0,61,0.00,,,-99.99,,2013-04-17 12:41:00,
2013-04-17 04:46:00,26.8,15.2,30.03,North,0,0.0,-999.0,61,0.00,,,-99.99,,2013-04-17 12:46:00,
2013-04-17 04:51:00,26.7,14.8,30.03,North,0,0.0,-999.0,60,0.00,,,-99.99,,2013-04-17 12:51:00,
2013-04-17 04:56:00,26.5,15.3,30.03,North,0,0.0,-999.0,61,0.00,,,-99.99,,2013-04-17 12:56:00,
2013-04-17 05:01:00,26.4,15.1,30.02,North,0,0.0,-999.0,61,0.00,,,-99.99,,2013-04-17 13:01:00,
2013-04-17 05:07:00,26.2,14.9,30.02,North,0,0.0,-999.0,61,0.00,,,-99.99,,2013-04-17 13:07:00,
2013-04-17 05:12:00,26.1,14.9,30.02,North,0,0.0,-999.0,62,0.00,,,-99.99,,2013-04-17 13:12:00,
2013-04-17 05:17:00,25.9,15.0,30.02,North,0,0.0,-999.0,62,0.00,,,-99.99,,2013-04-17 13:17:00,
2013-04-17 05:22:00,25.6,13.8,30.02,North,0,0.0,-999.0,60,0.00,,,-99.99,,2013-04-17 13:22:00,
2013-04-17 05:27:00,25.6,13.7,30.02,North,0,0.0,-999.0,60,0.00,,,-99.99,,2013-04-17 13:27:00,
2013-04-17 05:33:00,25.7,14.1,30.02,North,0,0.0,-999.0,60,0.00,,,-99.99,,2013-04-17 13:33:00,
2013-04-17 05:38:00,25.7,12.8,30.02,North,0,0.0,-999.0,57,0.00,,,-99.99,,2013-04-17 13:38:00,
2013-04-17 05:43:00,25.9,12.2,30.02,North,0,0.0,-999.0,55,0.00,,,-99.99,,2013-04-17 13:43:00,
2013-04-17 05:48:00,26.2,13.7,30.02,North,0,0.0,-999.0,58,0.00,,,-99.99,,2013-04-17 13:48:00,
2013-04-17 05:53:00,26.1,12.9,30.02,North,0,0.0,-999.0,56,0.00,,,-99.99,,2013-04-17 13:53:00,
2013-04-17 05:59:00,26.0,13.9,30.02,North,0,0.0,-999.0,59,0.00,,,-99.99,,2013-04-17 13:59:00,
2013-04-17 06:04:00,25.8,13.2,30.02,North,0,0.0,-999.0,58,0.00,,,-99.99,,2013-04-17 14:04:00,
2013-04-17 06:09:00,25.9,12.1,30.02,North,0,0.0,-999.0,55,0.00,,,-99.99,,2013-04-17 14:09:00,
2013-04-17 06:14:00,26.0,11.7,30.02,North,0,0.0,-999.0,54,0.00,,,-99.99,,2013-04-17 14:14:00,
2013-04-17 06:19:00,26.2,12.7,30.02,North,0,0.0,-999.0,56,0.00,,,-99.99,,2013-04-17 14:19:00,
2013-04-17 06:25:00,26.3,11.2,30.02,North,0,0.0,-999.0,52,0.00,,,-99.99,,2013-04-17 14:25:00,
2013-04-17 06:30:00,26.3,12.8,30.02,North,0,0.0,-999.0,56,0.00,,,-99.99,,2013-04-17 14:30:00,
2013-04-17 06:35:00,26.2,12.5,30.02,North,0,0.0,-999.0,55,0.00,,,-99.99,,2013-04-17 14:35:00,
2013-04-17 06:40:00,26.2,12.7,30.02,North,0,0.0,-999.0,56,0.00,,,-99.99,,2013-04-17 14:40:00,
2013-04-17 06:45:00,26.4,13.8,30.02,North,0,0.0,-999.0,58,0.00,,,-99.99,,2013-04-17 14:45:00,
2013-04-17 06:51:00,26.2,13.8,30.02,North,0,0.0,-999.0,59,0.00,,,-99.99,,2013-04-17 14:51:00,
2013-04-17 06:56:00,26.2,14.6,30.02,North,0,0.0,-999.0,60,0.00,,,-99.99,,2013-04-17 14:56:00,
2013-04-17 07:01:00,26.1,13.6,30.02,North,0,0.0,-999.0,58,0.00,,,-99.99,,2013-04-17 15:01:00,
2013-04-17 07:06:00,26.3,14.6,30.02,North,0,0.0,-999.0,60,0.00,,,-99.99,,2013-04-17 15:06:00,
2013-04-17 07:11:00,26.3,15.3,30.02,North,0,0.0,-999.0,62,0.00,,,-99.99,,2013-04-17 15:11:00,
2013-04-17 07:17:00,26.4,15.1,30.02,North,0,0.0,-999.0,61,0.00,,,-99.99,,2013-04-17 15:17:00,
2013-04-17 07:22:00,26.5,15.8,30.02,North,0,0.0,-999.0,63,0.00,,,-99.99,,2013-04-17 15:22:00,
2013-04-17 07:27:00,26.7,15.9,30.02,North,0,0.0,-999.0,63,0.00,,,-99.99,,2013-04-17 15:27:00,
2013-04-17 07:32:00,26.9,15.9,30.02,North,0,0.0,-999.0,63,0.00,,,-99.99,,2013-04-17 15:32:00,
2013-04-17 07:37:00,27.0,16.7,30.02,North,0,0.0,-999.0,64,0.00,,,-99.99,,2013-04-17 15:37:00,
2013-04-17 07:43:00,27.1,16.8,30.02,North,0,0.0,-999.0,64,0.00,,,-99.99,,2013-04-17 15:43:00,
2013-04-17 07:48:00,27.2,16.6,30.02,North,0,0.0,-999.0,63,0.00,,,-99.99,,2013-04-17 15:48:00,
2013-04-17 07:53:00,27.5,15.9,30.02,North,0,0.0,-999.0,61,0.00,,,-99.99,,2013-04-17 15:53:00,
2013-04-17 07:58:00,27.8,16.3,30.02,North,0,0.0,-999.0,61,0.00,,,-99.99,,2013-04-17 15:58:00,
2013-04-17 08:03:00,27.8,16.5,30.02,North,0,0.0,-999.0,62,0.00,,,-99.99,,2013-04-17 16:03:00,
2013-04-17 08:09:00,29.1,16.0,30.02,North,0,0.0,-999.0,57,0.00,,,-99.99,,2013-04-17 16:09:00,
2013-04-17 08:14:00,29.8,16.1,30.02,North,0,0.0,-999.0,56,0.00,,,-99.99,,2013-04-17 16:14:00,
2013-04-17 08:19:00,31.3,15.6,30.02,North,0,0.0,-999.0,51,0.00,,,-99.99,,2013-04-17 16:19:00,
2013-04-17 08:24:00,32.2,17.0,30.02,North,0,0.0,-999.0,53,0.00,,,-99.99,,2013-04-17 16:24:00,
2013-04-17 08:29:00,33.3,15.4,30.02,North,0,0.0,-999.0,47,0.00,,,-99.99,,2013-04-17 16:29:00,
2013-04-17 08:35:00,34.0,15.8,30.02,North,0,0.0,-999.0,46,0.00,,,-99.99,,2013-04-17 16:35:00,
2013-04-17 08:40:00,34.6,16.0,30.02,North,0,0.0,-999.0,46,0.00,,,-99.99,,2013-04-17 16:40:00,
2013-04-17 08:45:00,35.2,16.9,30.02,North,0,0.0,-999.0,46,0.00,,,-99.99,,2013-04-17 16:45:00,
2013-04-17 08:50:00,35.4,16.9,30.02,North,0,0.0,-999.0,46,0.00,,,-99.99,,2013-04-17 16:50:00,
2013-04-17 08:55:00,35.2,16.4,30.02,North,0,0.0,-999.0,45,0.00,,,-99.99,,2013-04-17 16:55:00,
2013-04-17 09:01:00,36.0,17.1,30.01,North,0,0.0,-999.0,45,0.00,,,-99.99,,2013-04-17 17:01:00,
2013-04-17 09:06:00,37.8,17.6,30.01,North,0,0.0,-999.0,43,0.00,,,-99.99,,2013-04-17 17:06:00,
2013-04-17 09:11:00,38.7,17.2,30.01,North,0,0.0,-999.0,41,0.00,,,-99.99,,2013-04-17 17:11:00,
2013-04-17 09:16:00,37.6,13.8,30.01,North,0,0.0,-999.0,37,0.00,,,-99.99,,2013-04-17 17:16:00,
2013-04-17 09:21:00,36.9,15.6,30.01,North,0,0.0,-999.0,41,0.00,,,-99.99,,2013-04-17 17:21:00,
2013-04-17 09:27:00,38.4,14.2,30.01,North,0,0.0,-999.0,36,0.00,,,-99.99,,2013-04-17 17:27:00,
2013-04-17 09:32:00,38.4,15.9,30.01,North,0,0.0,-999.0,39,0.00,,,-99.99,,2013-04-17 17:32:00,
2013-04-17 09:37:00,38.1,14.9,30.01,North,0,0.0,-999.0,38,0.00,,,-99.99,,2013-04-17 17:37:00,
2013-04-17 09:42:00,38.0,15.8,30.01,North,0,0.0,-999.0,40,0.00,,,-99.99,,2013-04-17 17:42:00,
2013-04-17 09:47:00,39.4,15.7,30.01,North,0,0.0,-999.0,37,0.00,,,-99.99,,2013-04-17 17:47:00,
2013-04-17 09:53:00,38.8,17.2,30.01,North,0,0.0,-999.0,41,0.00,,,-99.99,,2013-04-17 17:53:00,
2013-04-17 09:58:00,39.5,17.6,30.01,North,0,0.0,-999.0,40,0.00,,,-99.99,,2013-04-17 17:58:00,
2013-04-17 10:03:00,39.2,18.5,30.03,North,0,0.0,-999.0,42,0.00,,,-99.99,,2013-04-17 18:03:00,
2013-04-17 10:08:00,38.9,16.0,30.03,North,0,0.0,-999.0,38,0.00,,,-99.99,,2013-04-17 18:08:00,
2013-04-17 10:13:00,39.2,17.5,30.03,North,0,0.0,-999.0,40,0.00,,,-99.99,,2013-04-17 18:13:00,
2013-04-17 10:19:00,39.7,17.6,30.03,North,0,0.0,-999.0,40,0.00,,,-99.99,,2013-04-17 18:19:00,
2013-04-17 10:24:00,39.7,16.5,30.03,North,0,0.0,-999.0,38,0.00,,,-99.99,,2013-04-17 18:24:00,
2013-04-17 10:29:00,40.8,17.7,30.03,North,0,0.0,-999.0,38,0.00,,,-99.99,,2013-04-17 18:29:00,
2013-04-17 10:34:00,40.3,17.1,30.03,North,0,0.0,-999.0,38,0.00,,,-99.99,,2013-04-17 18:34:00,
2013-04-17 10:39:00,40.0,16.4,30.03,North,0,0.0,-999.0,38,0.00,,,-99.99,,2013-04-17 18:39:00,
2013-04-17 10:44:00,40.6,17.6,30.03,North,0,0.0,-999.0,38,0.00,,,-99.99,,2013-04-17 18:44:00,
2013-04-17 10:49:00,40.4,17.6,30.03,North,0,0.0,-999.0,39,0.00,,,-99.99,,2013-04-17 18:49:00,
2013-04-17 10:54:00,40.9,19.1,30.03,North,0,0.0,-999.0,41,0.00,,,-99.99,,2013-04-17 18:54:00,
2013-04-17 10:59:00,41.0,17.1,30.03,North,0,0.0,-999.0,37,0.00,,,-99.99,,2013-04-17 18:59:00,
2013-04-17 11:04:00,41.0,17.7,30.03,North,0,0.0,-999.0,38,0.00,,,-99.99,,2013-04-17 19:04:00,
2013-04-17 11:09:00,41.1,16.3,30.03,North,0,0.0,-999.0,36,0.00,,,-99.99,,2013-04-17 19:09:00,
2013-04-17 11:14:00,41.7,17.9,30.03,North,0,0.0,-999.0,37,0.00,,,-99.99,,2013-04-17 19:14:00,
2013-04-17 11:19:00,41.6,17.5,30.03,North,0,0.0,-999.0,37,0.00,,,-99.99,,2013-04-17 19:19:00,
2013-04-17 11:24:00,41.0,18.8,30.03,North,0,0.0,-999.0,40,0.00,,,-99.99,,2013-04-17 19:24:00,
2013-04-17 11:29:00,41.3,18.7,30.03,North,0,0.0,-999.0,39,0.00,,,-99.99,,2013-04-17 19:29:00,
2013-04-17 11:34:00,41.4,17.8,30.03,North,0,0.0,-999.0,38,0.00,,,-99.99,,2013-04-17 19:34:00,
2013-04-17 11:39:00,41.3,18.3,30.03,North,0,0.0,-999.0,39,0.00,,,-99.99,,2013-04-17 19:39:00,
2013-04-17 11:44:00,41.3,17.6,30.03,North,0,0.0,-999.0,37,0.00,,,-99.99,,2013-04-17 19:44:00,
2013-04-17 11:49:00,41.4,18.0,30.03,North,0,0.0,-999.0,38,0.00,,,-99.99,,2013-04-17 19:49:00,
2013-04-17 11:54:00,41.7,16.5,30.03,North,0,0.0,-999.0,35,0.00,,,-99.99,,2013-04-17 19:54:00,
2013-04-17 11:59:00,42.2,17.6,30.03,North,0,0.0,-999.0,36,0.00,,,-99.99,,2013-04-17 19:59:00,
2013-04-17 12:04:00,41.8,15.6,30.03,North,0,0.0,-999.0,34,0.00,,,-99.99,,2013-04-17 20:04:00,
2013-04-17 12:09:00,41.0,15.2,30.03,North,0,0.0,-999.0,34,0.00,,,-99.99,,2013-04-17 20:09:00,
2013-04-17 12:14:00,40.3,15.5,30.03,North,0,0.0,-999.0,36,0.00,,,-99.99,,2013-04-17 20:14:00,
2013-04-17 12:19:00,40.8,15.3,30.03,North,0,0.0,-999.0,34,0.00,,,-99.99,,2013-04-17 20:19:00,
2013-04-17 12:24:00,41.1,15.1,30.03,North,0,0.0,-999.0,34,0.00,,,-99.99,,2013-04-17 20:24:00,
2013-04-17 12:29:00,41.5,16.6,30.03,North,0,0.0,-999.0,36,0.00,,,-99.99,,2013-04-17 20:29:00,
2013-04-17 12:34:00,40.7,17.4,30.03,North,0,0.0,-999.0,38,0.00,,,-99.99,,2013-04-17 20:34:00,
2013-04-17 12:39:00,40.7,17.5,30.03,North,0,0.0,-999.0,38,0.00,,,-99.99,,2013-04-17 20:39:00,
2013-04-17 12:44:00,42.4,17.2,30.03,North,0,0.0,-999.0,35,0.00,,,-99.99,,2013-04-17 20:44:00,
2013-04-17 12:49:00,43.9,16.7,30.03,North,0,0.0,-999.0,33,0.00,,,-99.99,,2013-04-17 20:49:00,
2013-04-17 12:54:00,44.2,15.8,30.03,North,0,0.0,-999.0,31,0.00,,,-99.99,,2013-04-17 20:54:00,
2013-04-17 12:59:00,43.8,15.8,30.03,North,0,0.0,-999.0,31,0.00,,,-99.99,,2013-04-17 20:59:00,
2013-04-17 13:04:00,43.0,15.6,30.03,North,0,0.0,-999.0,32,0.00,,,-99.99,,2013-04-17 21:04:00,
2013-04-17 13:09:00,42.3,13.6,30.03,North,0,0.0,-999.0,30,0.00,,,-99.99,,2013-04-17 21:09:00,
2013-04-17 13:14:00,41.9,14.8,30.03,North,0,0.0,-999.0,32,0.00,,,-99.99,,2013-04-17 21:14:00,
2013-04-17 13:19:00,42.1,15.5,30.03,North,0,0.0,-999.0,33,0.00,,,-99.99,,2013-04-17 21:19:00,
2013-04-17 13:24:00,42.7,16.2,30.03,North,0,0.0,-999.0,33,0.00,,,-99.99,,2013-04-17 21:24:00,
2013-04-17 13:29:00,43.4,16.8,30.03,North,0,0.0,-999.0,33,0.00,,,-99.99,,2013-04-17 21:29:00,
2013-04-17 13:34:00,43.0,16.0,30.03,North,0,0.0,-999.0,33,0.00,,,-99.99,,2013-04-17 21:34:00,
2013-04-17 13:39:00,43.4,17.9,30.03,North,0,0.0,-999.0,35,0.00,,,-99.99,,2013-04-17 21:39:00,
2013-04-17 13:44:00,41.5,17.0,30.03,North,0,0.0,-999.0,36,0.00,,,-99.99,,2013-04-17 21:44:00,
2013-04-17 13:49:00,41.9,16.1,30.03,North,0,0.0,-999.0,34,0.00,,,-99.99,,2013-04-17 21:49:00,
2013-04-17 13:54:00,41.9,16.7,30.03,North,0,0.0,-999.0,35,0.00,,,-99.99,,2013-04-17 21:54:00,
2013-04-17 13:59:00,43.6,16.4,30.02,North,0,0.0,-999.0,33,0.00,,,-99.99,,2013-04-17 21:59:00,
2013-04-17 14:04:00,43.1,15.6,30.02,North,0,0.0,-999.0,32,0.00,,,-99.99,,2013-04-17 22:04:00,
2013-04-17 14:09:00,43.4,16.4,30.02,North,0,0.0,-999.0,33,0.00,,,-99.99,,2013-04-17 22:09:00,
2013-04-17 14:14:00,43.7,15.1,30.02,North,0,0.0,-999.0,30,0.00,,,-99.99,,2013-04-17 22:14:00,
2013-04-17 14:19:00,44.7,16.3,30.02,North,0,0.0,-999.0,31,0.00,,,-99.99,,2013-04-17 22:19:00,
2013-04-17 14:24:00,43.6,15.9,30.02,North,0,0.0,-999.0,32,0.00,,,-99.99,,2013-04-17 22:24:00,
2013-04-17 14:29:00,41.6,24.5,30.02,North,0,0.0,-999.0,50,0.00,,,-99.99,,2013-04-17 22:29:00,
2013-04-17 14:34:00,40.6,24.4,30.02,North,0,0.0,-999.0,52,0.00,,,-99.99,,2013-04-17 22:34:00,
2013-04-17 14:39:00,38.3,23.9,30.02,North,0,0.0,-999.0,55,0.00,,,-99.99,,2013-04-17 22:39:00,
2013-04-17 14:44:00,39.2,24.4,30.02,North,0,0.0,-999.0,55,0.00,,,-99.99,,2013-04-17 22:44:00,
2013-04-17 14:49:00,40.2,24.6,30.02,North,0,0.0,-999.0,53,0.00,,,-99.99,,2013-04-17 22:49:00,
2013-04-17 14:54:00,38.5,24.7,30.02,North,0,0.0,-999.0,57,0.00,,,-99.99,,2013-04-17 22:54:00,
2013-04-17 14:59:00,37.8,24.4,30.04,North,0,0.0,-999.0,57,0.00,,,-99.99,,2013-04-17 22:59:00,
2013-04-17 15:04:00,39.1,23.6,30.04,North,0,0.0,-999.0,53,0.00,,,-99.99,,2013-04-17 23:04:00,
2013-04-17 15:09:00,40.0,23.9,30.04,North,0,0.0,-999.0,52,0.00,,,-99.99,,2013-04-17 23:09:00,
2013-04-17 15:14:00,38.3,23.5,30.04,North,0,0.0,-999.0,54,0.00,,,-99.99,,2013-04-17 23:14:00,
2013-04-17 15:19:00,38.0,25.3,30.04,North,0,0.0,-999.0,59,0.00,,,-99.99,,2013-04-17 23:19:00,
2013-04-17 15:24:00,38.2,25.2,30.04,North,0,0.0,-999.0,59,0.00,,,-99.99,,2013-04-17 23:24:00,
2013-04-17 15:29:00,37.8,25.0,30.04,North,0,0.0,-999.0,59,0.00,,,-99.99,,2013-04-17 23:29:00,
2013-04-17 15:34:00,39.2,25.4,30.04,North,0,0.0,-999.0,57,0.00,,,-99.99,,2013-04-17 23:34:00,
2013-04-17 15:39:00,38.5,25.3,30.04,North,0,0.0,-999.0,58,0.00,,,-99.99,,2013-04-17 23:39:00,
2013-04-17 15:44:00,38.0,25.0,30.04,North,0,0.0,-999.0,59,0.00,,,-99.99,,2013-04-17 23:44:00,
2013-04-17 15:49:00,38.0,25.0,30.04,North,0,0.0,-999.0,58,0.00,,,-99.99,,2013-04-17 23:49:00,
2013-04-17 15:54:00,37.5,24.6,30.04,North,0,0.0,-999.0,59,0.00,,,-99.99,,2013-04-17 23:54:00,
2013-04-17 15:59:00,37.5,24.4,30.03,North,0,0.0,-999.0,58,0.00,,,-99.99,,2013-04-17 23:59:00,
2013-04-17 16:04:00,38.0,24.7,30.03,North,0,0.0,-999.0,58,0.00,,,-99.99,,2013-04-18 00:04:00,
2013-04-17 16:09:00,37.0,24.5,30.03,North,0,0.0,-999.0,60,0.00,,,-99.99,,2013-04-18 00:09:00,
2013-04-17 16:15:00,37.4,25.1,30.03,North,0,0.0,-999.0,60,0.00,,,-99.99,,2013-04-18 00:15:00,
2013-04-17 16:20:00,36.9,24.6,30.03,North,0,0.0,-999.0,60,0.00,,,-99.99,,2013-04-18 00:20:00,
2013-04-17 16:25:00,37.0,24.2,30.03,North,0,0.0,-999.0,59,0.00,,,-99.99,,2013-04-18 00:25:00,
2013-04-17 16:30:00,36.8,24.7,30.03,North,0,0.0,-999.0,61,0.00,,,-99.99,,2013-04-18 00:30:00,
2013-04-17 16:35:00,37.6,24.5,30.03,North,0,0.0,-999.0,58,0.00,,,-99.99,,2013-04-18 00:35:00,
2013-04-17 16:40:00,36.9,24.0,30.03,North,0,0.0,-999.0,59,0.00,,,-99.99,,2013-04-18 00:40:00,
2013-04-17 16:45:00,37.3,24.2,30.03,North,0,0.0,-999.0,58,0.00,,,-99.99,,2013-04-18 00:45:00,
2013-04-17 16:50:00,37.0,24.4,30.03,North,0,0.0,-999.0,59,0.00,,,-99.99,,2013-04-18 00:50:00,
2013-04-17 16:55:00,37.0,24.5,30.03,North,0,0.0,-999.0,60,0.00,,,-99.99,,2013-04-18 00:55:00,
2013-04-17 17:00:00,36.9,24.3,30.03,North,0,0.0,-999.0,60,0.00,,,-99.99,,2013-04-18 01:00:00,
2013-04-17 17:05:00,37.4,24.4,30.03,North,0,0.0,-999.0,59,0.00,,,-99.99,,2013-04-18 01:05:00,
2013-04-17 17:10:00,37.0,24.5,30.03,North,0,0.0,-999.0,60,0.00,,,-99.99,,2013-04-18 01:10:00,
2013-04-17 17:15:00,36.8,24.4,30.03,North,0,0.0,-999.0,60,0.00,,,-99.99,,2013-04-18 01:15:00,
2013-04-17 17:20:00,37.1,24.6,30.03,North,0,0.0,-999.0,60,0.00,,,-99.99,,2013-04-18 01:20:00,
2013-04-17 17:25:00,37.3,24.7,30.03,North,0,0.0,-999.0,60,0.00,,,-99.99,,2013-04-18 01:25:00,
2013-04-17 17:30:00,38.1,25.5,30.03,North,0,0.0,-999.0,60,0.00,,,-99.99,,2013-04-18 01:30:00,
2013-04-17 17:35:00,37.7,25.5,30.03,North,0,0.0,-999.0,60,0.00,,,-99.99,,2013-04-18 01:35:00,
2013-04-17 17:40:00,38.1,25.8,30.03,North,0,0.0,-999.0,61,0.00,,,-99.99,,2013-04-18 01:40:00,
2013-04-17 17:45:00,38.3,25.8,30.03,North,0,0.0,-999.0,60,0.00,,,-99.99,,2013-04-18 01:45:00,
2013-04-17 17:50:00,37.3,25.2,30.03,North,0,0.0,-999.0,61,0.00,,,-99.99,,2013-04-18 01:50:00,
2013-04-17 17:55:00,38.5,25.7,30.03,North,0,0.0,-999.0,59,0.00,,,-99.99,,2013-04-18 01:55:00,
2013-04-17 18:00:00,38.2,25.1,30.03,North,0,0.0,-999.0,58,0.00,,,-99.99,,2013-04-18 02:00:00,
2013-04-17 18:05:00,37.3,25.0,30.03,North,0,0.0,-999.0,60,0.00,,,-99.99,,2013-04-18 02:05:00,
2013-04-17 18:11:00,36.5,24.6,30.03,North,0,0.0,-999.0,61,0.00,,,-99.99,,2013-04-18 02:11:00,
2013-04-17 18:16:00,36.7,24.9,30.03,North,0,0.0,-999.0,61,0.00,,,-99.99,,2013-04-18 02:16:00,
2013-04-17 18:21:00,36.7,24.8,30.03,North,0,0.0,-999.0,61,0.00,,,-99.99,,2013-04-18 02:21:00,
2013-04-17 18:26:00,35.9,24.5,30.03,North,0,0.0,-999.0,63,0.00,,,-99.99,,2013-04-18 02:26:00,
2013-04-17 18:32:00,36.2,24.4,30.03,North,0,0.0,-999.0,61,0.00,,,-99.99,,2013-04-18 02:32:00,
2013-04-17 18:37:00,35.6,24.3,30.03,North,0,0.0,-999.0,62,0.00,,,-99.99,,2013-04-18 02:37:00,
2013-04-17 18:42:00,35.6,24.3,30.03,North,0,0.0,-999.0,63,0.00,,,-99.99,,2013-04-18 02:42:00,
2013-04-17 18:48:00,35.9,24.2,30.03,North,0,0.0,-999.0,62,0.00,,,-99.99,,2013-04-18 02:48:00,
2013-04-17 18:53:00,35.6,23.9,30.03,North,0,0.0,-999.0,62,0.00,,,-99.99,,2013-04-18 02:53:00,
2013-04-17 18:58:00,35.4,24.1,30.03,North,0,0.0,-999.0,63,0.00,,,-99.99,,2013-04-18 02:58:00,
2013-04-17 19:03:00,35.7,24.2,30.03,North,0,0.0,-999.0,62,0.00,,,-99.99,,2013-04-18 03:03:00,
2013-04-17 19:08:00,35.5,23.8,30.03,North,0,0.0,-999.0,62,0.00,,,-99.99,,2013-04-18 03:08:00,
2013-04-17 19:13:00,35.2,23.8,30.03,North,0,0.0,-999.0,62,0.00,,,-99.99,,2013-04-18 03:13:00,
2013-04-17 19:18:00,35.4,23.9,30.03,North,0,0.0,-999.0,62,0.00,,,-99.99,,2013-04-18 03:18:00,
2013-04-17 19:23:00,35.0,23.6,30.03,North,0,0.0,-999.0,62,0.00,,,-99.99,,2013-04-18 03:23:00,
2013-04-17 19:28:00,35.1,24.1,30.03,North,0,0.0,-999.0,63,0.00,,,-99.99,,2013-04-18 03:28:00,
2013-04-17 19:33:00,35.4,24.0,30.03,North,0,0.0,-999.0,62,0.00,,,-99.99,,2013-04-18 03:33:00,
2013-04-17 19:38:00,35.6,24.0,30.03,North,0,0.0,-999.0,62,0.00,,,-99.99,,2013-04-18 03:38:00,
2013-04-17 19:43:00,35.3,23.6,30.03,North,0,0.0,-999.0,61,0.00,,,-99.99,,2013-04-18 03:43:00,
2013-04-17 19:48:00,35.1,23.3,30.03,North,0,0.0,-999.0,61,0.00,,,-99.99,,2013-04-18 03:48:00,
2013-04-17 19:53:00,35.1,23.5,30.03,North,0,0.0,-999.0,62,0.00,,,-99.99,,2013-04-18 03:53:00,
2013-04-17 19:58:00,35.2,23.5,30.03,North,0,0.0,-999.0,62,0.00,,,-99.99,,2013-04-18 03:58:00,
2013-04-17 20:01:00,34.8,23.4,30.03,North,0,0.0,-999.0,62,0.00,,,-99.99,,2013-04-18 04:01:00,
2013-04-17 20:02:00,34.7,23.3,30.03,North,0,0.0,-999.0,62,0.00,,,-99.99,,2013-04-18 04:02:00,
2013-04-17 20:06:00,34.6,23.4,30.03,North,0,0.0,-999.0,63,0.00,,,-99.99,,2013-04-18 04:06:00,
2013-04-17 20:09:00,34.5,23.3,30.03,North,0,0.0,-999.0,63,0.00,,,-99.99,,2013-04-18 04:09:00,
2013-04-17 20:10:00,34.4,23.2,30.03,North,0,0.0,-999.0,63,0.00,,,-99.99,,2013-04-18 04:10:00,
2013-04-17 20:15:00,34.2,23.2,30.03,North,0,0.0,-999.0,63,0.00,,,-99.99,,2013-04-18 04:15:00,
2013-04-17 20:20:00,34.4,23.3,30.03,North,0,0.0,-999.0,63,0.00,,,-99.99,,2013-04-18 04:20:00,
2013-04-17 20:25:00,34.3,23.1,30.03,North,0,0.0,-999.0,63,0.00,,,-99.99,,2013-04-18 04:25:00,
2013-04-17 20:30:00,34.2,23.2,30.03,North,0,0.0,-999.0,63,0.00,,,-99.99,,2013-04-18 04:30:00,
2013-04-17 20:35:00,33.6,22.8,30.03,North,0,0.0,-999.0,64,0.00,,,-99.99,,2013-04-18 04:35:00,
2013-04-17 20:40:00,33.7,23.0,30.03,North,0,0.0,-999.0,64,0.00,,,-99.99,,2013-04-18 04:40:00,
2013-04-17 20:45:00,33.2,22.7,30.03,North,0,0.0,-999.0,64,0.00,,,-99.99,,2013-04-18 04:45:00,
2013-04-17 20:50:00,33.2,22.8,30.03,North,0,0.0,-999.0,65,0.00,,,-99.99,,2013-04-18 04:50:00,
2013-04-17 20:55:00,33.2,22.9,30.03,North,0,0.0,-999.0,65,0.00,,,-99.99,,2013-04-18 04:55:00,
2013-04-17 21:00:00,33.0,22.8,30.03,North,0,0.0,-999.0,65,0.00,,,-99.99,,2013-04-18 05:00:00,
2013-04-17 21:05:00,32.6,22.7,30.03,North,0,0.0,-999.0,66,0.00,,,-99.99,,2013-04-18 05:05:00,
2013-04-17 21:10:00,32.4,22.5,30.03,North,0,0.0,-999.0,66,0.00,,,-99.99,,2013-04-18 05:10:00,
2013-04-17 21:15:00,31.9,22.3,30.03,North,0,0.0,-999.0,67,0.00,,,-99.99,,2013-04-18 05:15:00,
2013-04-17 21:20:00,31.9,22.6,30.03,North,0,0.0,-999.0,68,0.00,,,-99.99,,2013-04-18 05:20:00,
2013-04-17 21:25:00,31.6,22.6,30.03,North,0,0.0,-999.0,68,0.00,,,-99.99,,2013-04-18 05:25:00,
2013-04-17 21:30:00,31.3,22.6,30.03,North,0,0.0,-999.0,69,0.00,,,-99.99,,2013-04-18 05:30:00,
2013-04-17 21:35:00,31.1,22.7,30.03,North,0,0.0,-999.0,70,0.00,,,-99.99,,2013-04-18 05:35:00,
2013-04-17 21:40:00,30.9,22.6,30.03,North,0,0.0,-999.0,71,0.00,,,-99.99,,2013-04-18 05:40:00,
2013-04-17 21:45:00,30.9,22.6,30.03,North,0,0.0,-999.0,70,0.00,,,-99.99,,2013-04-18 05:45:00,
2013-04-17 21:50:00,30.4,22.1,30.03,North,0,0.0,-999.0,70,0.00,,,-99.99,,2013-04-18 05:50:00,
2013-04-17 21:55:00,30.2,22.0,30.03,North,0,0.0,-999.0,71,0.00,,,-99.99,,2013-04-18 05:55:00,
2013-04-17 22:00:00,30.1,22.0,30.04,North,0,0.0,-999.0,71,0.00,,,-99.99,,2013-04-18 06:00:00,
2013-04-17 22:05:00,30.0,22.1,30.04,North,0,0.0,-999.0,72,0.00,,,-99.99,,2013-04-18 06:05:00,
2013-04-17 22:10:00,29.8,22.1,30.04,North,0,0.0,-999.0,72,0.00,,,-99.99,,2013-04-18 06:10:00,
2013-04-17 22:15:00,30.0,22.3,30.04,North,0,0.0,-999.0,72,0.00,,,-99.99,,2013-04-18 06:15:00,
2013-04-17 22:20:00,29.8,22.2,30.04,North,0,0.0,-999.0,72,0.00,,,-99.99,,2013-04-18 06:20:00,
2013-04-17 22:25:00,29.6,22.2,30.04,North,0,0.0,-999.0,73,0.00,,,-99.99,,2013-04-18 06:25:00,
2013-04-17 22:30:00,29.6,22.3,30.04,North,0,0.0,-999.0,73,0.00,,,-99.99,,2013-04-18 06:30:00,
2013-04-17 22:35:00,29.5,22.2,30.04,North,0,0.0,-999.0,73,0.00,,,-99.99,,2013-04-18 06:35:00,
2013-04-17 22:40:00,29.5,22.2,30.04,North,0,0.0,-999.0,74,0.00,,,-99.99,,2013-04-18 06:40:00,
2013-04-17 22:45:00,29.2,21.9,30.04,North,0,0.0,-999.0,73,0.00,,,-99.99,,2013-04-18 06:45:00,
2013-04-17 22:50:00,29.1,22.0,30.04,North,0,0.0,-999.0,74,0.00,,,-99.99,,2013-04-18 06:50:00,
2013-04-17 22:55:00,28.9,21.9,30.04,North,0,0.0,-999.0,74,0.00,,,-99.99,,2013-04-18 06:55:00,
2013-04-17 23:00:00,28.8,21.9,30.05,North,0,0.0,-999.0,75,0.00,,,-99.99,,2013-04-18 07:00:00,
2013-04-17 23:05:00,28.8,21.9,30.05,North,0,0.0,-999.0,75,0.00,,,-99.99,,2013-04-18 07:05:00,
2013-04-17 23:10:00,28.6,21.8,30.05,North,0,0.0,-999.0,75,0.00,,,-99.99,,2013-04-18 07:10:00,
2013-04-17 23:15:00,28.6,21.9,30.05,North,0,0.0,-999.0,75,0.00,,,-99.99,,2013-04-18 07:15:00,
2013-04-17 23:20:00,28.6,21.9,30.05,North,0,0.0,-999.0,75,0.00,,,-99.99,,2013-04-18 07:20:00,
2013-04-17 23:25:00,28.4,21.8,30.05,North,0,0.0,-999.0,75,0.00,,,-99.99,,2013-04-18 07:25:00,
2013-04-17 23:30:00,28.5,21.7,30.05,North,0,0.0,-999.0,75,0.00,,,-99.99,,2013-04-18 07:30:00,
2013-04-17 23:35:00,28.4,21.5,30.05,North,0,0.0,-999.0,75,0.00,,,-99.99,,2013-04-18 07:35:00,
2013-04-17 23:40:00,28.4,21.2,30.05,North,0,0.0,-999.0,74,0.00,,,-99.99,,2013-04-18 07:40:00,
2013-04-17 23:45:00,28.3,20.9,30.05,North,0,0.0,-999.0,73,0.00,,,-99.99,,2013-04-18 07:45:00,
2013-04-17 23:50:00,28.1,20.5,30.05,North,0,0.0,-999.0,72,0.00,,,-99.99,,2013-04-18 07:50:00,
2013-04-17 23:55:00,28.1,20.4,30.05,North,0,0.0,-999.0,72,0.00,,,-99.99,,2013-04-18 07:55:00,